Fort Knox, KY

5:45 AM EST on February 12, 2016 (GMT -0500)
Godman Army Air Field

Weather History for KFTK - January, 2013

Change the Weather History Date:

Wednesday, January 2, 2013

  Actual Average Record
Temperature  
Mean Temperature 26 °F -  
Max Temperature 31 °F 41 °F 69 °F (2006)
Min Temperature 21 °F 26 °F 10 °F (2001)
Degree Days  
Heating Degree Days 39    
Moisture  
Dew Point 23 °F    
Average Humidity 84    
Maximum Humidity 93    
Minimum Humidity 63    
Precipitation  
Precipitation 0.00 in - - ()
Sea Level Pressure  
Sea Level Pressure 30.22 in    
Wind  
Wind Speed 4 mph (NW)    
Max Wind Speed 9 mph    
Max Gust Speed -    
Visibility 10 miles    
Events      
Averages and records for this station are not official NWS values.
T = Trace of Precipitation, MM = Missing Value Source: NWS Daily Summary

Daily Weather History Graph

Daily Weather History Graph

Search for Another Location

Airport or City:

Trip Planner

Search our weather history database for the weather conditions in past years. The results will help you decide how hot, cold, wet, or windy it might be!

Date:

Astronomy

Jan. 02, 2013 Rise Set
Actual Time 7:59 AM EST 5:36 PM EST
Civil Twilight 7:30 AM EST 6:05 PM EST
Nautical Twilight 6:57 AM EST 6:38 PM EST
Astronomical Twilight 6:25 AM EST 7:10 PM EST
Moon 11:02 PM EST (1/2) 10:46 AM EST (1/2)
Length of Visible Light 10h 35m
Length of Day
9h 36m
Waning Gibbous, 75% of the Moon is Illuminated
Jan 2
Waning Gibbous
Jan 4
Last Quarter
Jan 11
New
Jan 18
First Quarter
Jan 26
Full

Hourly Weather History & Observations

Time (EST) Temp. Windchill Dew Point Humidity Pressure Visibility Wind Dir Wind Speed Gust Speed Precip Events Conditions
12:24 AM 30.2 °F 24.3 °F 26.6 °F 86% 30.16 in 10.0 mi NW 5.8 mph - N/A   Overcast
12:50 AM 30.2 °F 26.7 °F 26.6 °F 86% 30.16 in 10.0 mi NNW 3.5 mph - N/A   Overcast
12:53 AM 30.2 °F 25.4 °F 26.6 °F 86% 30.16 in 10.0 mi NNW 4.6 mph - N/A   Overcast
12:55 AM 30.6 °F 27.1 °F 26.6 °F 85% 30.16 in 10.0 mi NW 3.5 mph - N/A   Overcast
1:55 AM 30.0 °F 21.7 °F 26.6 °F 87% 30.16 in 9.0 mi NW 9.2 mph - N/A   Overcast
2:39 AM 30.2 °F 22.6 °F 26.6 °F 86% 30.17 in 9.0 mi NW 8.1 mph - N/A   Overcast
2:55 AM 29.5 °F 21.8 °F 26.1 °F 87% 30.17 in 10.0 mi NW 8.1 mph - N/A   Overcast
3:55 AM 28.0 °F 24.2 °F 24.6 °F 87% 30.19 in 10.0 mi NW 3.5 mph - N/A   Mostly Cloudy
4:08 AM 28.4 °F 20.4 °F 24.8 °F 86% 30.19 in 10.0 mi WNW 8.1 mph - N/A   Overcast
4:33 AM 26.6 °F 19.1 °F 23.0 °F 86% 30.20 in 10.0 mi NW 6.9 mph - N/A   Overcast
4:47 AM 26.6 °F 19.1 °F 23.0 °F 86% 30.18 in 10.0 mi NNW 6.9 mph - N/A   Scattered Clouds
4:55 AM 26.2 °F 18.6 °F 22.8 °F 87% 30.19 in 10.0 mi NW 6.9 mph - N/A   Partly Cloudy
5:55 AM 24.4 °F - 21.7 °F 89% 30.19 in 10.0 mi Calm Calm - N/A   Partly Cloudy
6:55 AM 22.5 °F 17.8 °F 20.1 °F 91% 30.21 in 9.0 mi WNW 3.5 mph - N/A   Scattered Clouds
7:55 AM 21.7 °F 17.0 °F 19.8 °F 92% 30.23 in 7.0 mi NW 3.5 mph - N/A   Scattered Clouds
8:55 AM 24.1 °F 16.0 °F 22.1 °F 92% 30.24 in 8.0 mi NW 6.9 mph - N/A   Scattered Clouds
9:55 AM 25.2 °F 19.5 °F 22.3 °F 89% 30.26 in 9.0 mi WNW 4.6 mph - N/A   Mostly Cloudy
9:58 AM 24.8 °F 19.1 °F 23.0 °F 93% 30.31 in 9.0 mi NW 4.6 mph - N/A   Mostly Cloudy
10:55 AM 25.5 °F 21.3 °F 22.3 °F 88% 30.27 in 10.0 mi WNW 3.5 mph - N/A   Overcast
11:55 AM 25.7 °F - 22.1 °F 86% 30.27 in 10.0 mi North 2.3 mph - N/A   Overcast
12:55 PM 27.5 °F 23.6 °F 22.5 °F 81% 30.25 in 10.0 mi South 3.5 mph - N/A   Overcast
1:28 PM 26.6 °F - 21.2 °F 80% 30.19 in 10.0 mi Calm Calm - N/A   Mostly Cloudy
1:55 PM 29.3 °F - 22.8 °F 77% 30.22 in 10.0 mi Calm Calm - N/A   Mostly Cloudy
2:55 PM 31.5 °F - 21.0 °F 65% 30.21 in 10.0 mi Calm Calm - N/A   Mostly Cloudy
3:55 PM 31.8 °F - 20.7 °F 63% 30.21 in 10.0 mi Calm Calm - N/A   Mostly Cloudy
4:55 PM 30.9 °F 27.5 °F 21.7 °F 69% 30.21 in 10.0 mi NNW 3.5 mph - N/A   Mostly Cloudy
5:55 PM 28.2 °F 23.1 °F 21.4 °F 76% 30.23 in 10.0 mi WNW 4.6 mph - N/A   Mostly Cloudy
6:55 PM 27.7 °F - 20.1 °F 73% 30.25 in 10.0 mi Calm Calm - N/A   Mostly Cloudy
7:55 PM 26.2 °F - 20.7 °F 79% 30.25 in 10.0 mi Calm Calm - N/A   Mostly Cloudy
8:55 PM 24.8 °F - 20.3 °F 83% 30.25 in 10.0 mi Calm Calm - N/A   Mostly Cloudy
9:55 PM 23.7 °F - 19.9 °F 85% 30.25 in 10.0 mi Calm Calm - N/A   Mostly Cloudy
10:55 PM 23.5 °F - 19.6 °F 85% 30.25 in 10.0 mi Calm Calm - N/A   Mostly Cloudy
11:55 PM 22.3 °F - 19.9 °F 91% 30.26 in 10.0 mi Calm Calm - N/A   Clear